STARLINK-2228, 48576

Orbit data source: Space-Track

STARLINK-2228, 48576 is a payload satellite owned by SpaceX/Seattle (US) in LEO that was launched on Sat, 15 May 2021 UTC via an FALCON 9 launch vehicle from the Air Force Eastern Test Range (AFETR). Payload-class satellites include a variety of spacecraft equipped with specific instruments for various scientific and technological missions. These include communications satellites like Starlink; space stations such as the ISS; scientific satellites like the Hubble; Earth observation satellites from companies like Planet Labs, Umbra, and HawkEye 360; GPS; miniature CubeSats for education and research; and military/defense satellites.

Loading next visibility...
Identifier
48576, 2021-041Z
Orbit
LEO
Country
Flag of USUS
Related business
Manufacturer
SpaceX/Seattle
Mission
Operational Commercial Communications
Bus & Motor
STARLINK, Unknown motor
Mass
260 kg wet, ~248 kg dry
Launch date (UTC)
2021-05-15 (5 years ago)
Launch vehicle
FALCON 9
Launch site
Air Force Eastern Test Range (AFETR)
Object type
Payload
Rocket body
Debris
Shape & HBR
Box + 1 Pan, 10.1 m
Radar Cross Section
13.562 m², Large (>1 m²)

Expand to show TLE details & history
Last TLE update: 1 day ago

TLE from 1 day ago
0 STARLINK-2228
1 48576U 21041Z   25349.39276454  .00000671  00000-0  63941-4 0  9992
2 48576  53.0559 125.0398 0000946  63.7229 296.3857 15.06397610252855
Epoch: 2025-12-15T09:25Z
TLE epoch observation values (Epoch: 2025-12-15T09:25:34.856Z)
Latitude
-0.00002°
Longitude
-100.64743°
Altitude
547.807 km
Speed
7.589 km/s
True Right ascension
08h 20m 09s
True Declination
0° 00' 00"
Sunlit
Object was in full shadow at epoch
Visualization orbit readout
Latitude
Unknown
Longitude
Unknown
Altitude
Unknown
Speed
Unknown
Apparent Right ascension
Unknown
Apparent Declination
Unknown
Sunlit
N/A
Visualization observer readout
Local Sidereal Time
09:25:36
Azimuth
Unknown
Elevation
Unknown
Doppler factor
Unknown
Orbital elements
Apogee altitude
548.145 km
Perigee altitude
546.834 km
Semi-major axis
6,925.626 km
Eccentricity
0.00009
Inclination
53.0559°
RAAN
125.0398°
Arg. of periapsis
63.7229°
True anomaly
296.37599°
Mean anomaly
296.3857°
Eccentric anomaly
296.38084°
Mean motion
3.76578 °/min
Orbital period
95.6 mins
BSTAR
0.000063941
Loading maneuver chart data...
Computing Atmospheric mass density...
Loading historical data...
Loading historical data...
Loading historical data...
Loading historical data...
Loading historical data...
Loading historical data...
Loading historical data...

Documentation

Showing up to 5 results
|